Flag for U.S.A. Weather past 2 weeks in Charlottesville, Virginia, U.S.A.

Now
76 °F

Passing clouds.


Feels Like: 78 °F
Forecast: 62 / 78 °F
Wind: 5 mph from Southeast

Location: Charlottesville-Albemarle Airport

Current Time: Jul 3, 2015 at 4:34:32 PM

Latest Report: Jul 3, 2015 at 3:53 PM


Visibility: 10 mi

Pressure: 29.94 "Hg

Humidity: 64%

Dew point: 63 °F

Location of CharlottesvilleLocation

Historic Weather in Charlottesville — Graph

°F

Charlottesville temperature yesterday

Maximum temperature yesterday: 76 °F (at 1:53 PM)
Minimum temperature yesterday: 65 °F (at 11:53 PM)
Average temperature yesterday: 71 °F

Past Weeks' High & Low Weather Summary

 TemperatureHumidityPressure
High93 °F (Jun 23, 2:53 PM)97% (Jun 25, 10:53 PM)30.10 "Hg (Jun 25, 10:53 PM)
Low58 °F (Jun 29, 5:53 AM)40% (Jun 29, 12:53 PM)29.67 "Hg (Jun 28, 3:53 AM)
Average75 °F73%29.92 "Hg
* Reported Jun 18 2:53 PM — Jul 3 2:53 PM, Charlottesville, Weather by CustomWeather, © 2015

Note: Actual official high and low records may vary slightly from our data, if they occured in-between our weather recording intervals... More about our weather records

Advertising

Charlottesville weather history for previous 24 hours

 ConditionsComfort  
Time TempWeatherWind HumidityBarometerVisibility
2:53 PM
Fri, Jul 3
75 °FLight rain. Cloudy.5 mph74%29.95 "Hg8 mi
1:53 PM74 °FOvercast.6 mph74%29.96 "Hg7 mi
12:53 PM75 °FCloudy.No wind71%29.98 "Hg6 mi
11:53 AM73 °FMore clouds than sun.No wind76%29.98 "Hg6 mi
11:00 AM72 °FOvercast.No wind76%30.00 "Hg6 mi
9:53 AM69 °FScattered clouds.No wind84%29.98 "Hg2 mi
8:53 AM67 °FFog.No wind90%29.98 "Hg2 mi
7:53 AM65 °FFog.No wind94%29.95 "Hg3 mi
7:00 AM64 °FFog.No wind94%29.96 "Hg2 mi
5:53 AM63 °FFog.3 mph97%29.93 "Hg1 mi
4:53 AM62 °FFog.No wind96%29.92 "Hg2 mi
3:53 AM65 °FFog.No wind94%29.92 "Hg4 mi
2:53 AM65 °FFog.No wind94%29.91 "Hg4 mi
1:53 AM65 °FFog.No wind94%29.92 "Hg3 mi
12:53 AM65 °FFog.No wind97%29.92 "Hg2 mi
11:53 PM
Thu, Jul 2
65 °FFog.3 mph97%29.93 "Hg2 mi
10:53 PM66 °FFog.No wind93%29.90 "Hg5 mi
9:53 PM68 °FClear.No wind87%29.91 "Hg7 mi
8:53 PM68 °FSunny.No wind90%29.90 "Hg7 mi
7:53 PM73 °FSunny.3 mph74%29.89 "Hg7 mi
6:53 PM74 °FSunny.5 mph76%29.86 "Hg7 mi
5:53 PM75 °FSunny.No wind71%29.87 "Hg8 mi
4:53 PM74 °FPartly sunny.No wind74%29.88 "Hg7 mi
Weather by CustomWeather, © 2015

See weather overviewHow to use our weather pages